Location: Observatory
(52.1446°N, 0.4624°W)
Time: 16:33:24
(UTC+00:00)

ISS - Pass Details

Date: 10 November 2018
Orbit: 401 x 408 km, 51.6° (Epoch: 20 November)

Event Time Altitude Azimuth Distance (km) Brightness Sun altitude
Exits shadow 04:58:20 49° 164° (SSE) 530 -3.2 -20.7°
Drops below altitude 10° 05:01:06 10° 120° (ESE) 1,463 -0.1 -20.2°
Sets 05:03:12 0° 116° (ESE) 2,323 1.2 -19.9°
